[[{"header":{"parameterUnit":"m.s-1","parameterCategory":1,"la1":30.2991,"la2":30.254,"lo1":-89.0895,"lo2":-89.0444,"dy":0.0017,"dx":0.0017,"nx":28,"ny":28,"refTime":"2024-08-06T03:00:00:Z","depth":0,"parameterNumber":2,"parameterNumberName":"U-component_of_WINDS"},"data":[0,0,0,0,0,0,0,0,0,0,0,0,0,0,0,0,0,0,0,0,0,0,0,0,0,0,0,0,0,0,0,0,0,0,0,0,0,0,0,0,0,0,0,0,0,0,0,0,0,0,0,0,0,0,0,0,0,0,1.8504,1.8505,0,1.8593,1.8594,1.8595,1.8614,1.8614,1.8613,1.8613,1.8704,1.8707,1.871,0,0,0,0,0,0,0,0,0,0,0,0,0,1.8352,1.8355,1.8504,1.8505,1.8506,1.8593,1.8594,1.8595,1.8615,1.8614,1.8613,1.8612,1.8703,1.8706,1.871,0,0,0,0,0,0,0,0,0,0,0,0,0,1.8427,1.8356,1.8504,1.8526,1.8529,1.8592,1.8594,1.8595,1.8615,1.8614,1.8613,1.8612,1.8702,1.8706,1.8711,1.8758,0,0,1.8724,1.8726,0,0,0,0,0,0,0,0,1.8423,1.8433,1.8522,1.8525,1.8528,1.8592,1.8574,1.865,1.8615,1.8582,1.8613,1.8611,1.8667,1.8675,1.8693,1.8762,1.8766,1.8725,1.8728,1.873,1.8731,0,0,0,0,0,0,0,1.8418,1.8429,1.8539,1.8523,1.8527,1.8532,1.8542,1.8588,1.8629,1.8585,1.8587,1.8597,1.8669,1.8689,1.8696,1.8767,1.8725,1.8729,1.8732,1.8733,1.888,1.8882,0,0,0,0,0,0,1.8408,1.8425,1.8536,1.8542,1.8472,1.8536,1.8547,1.8572,1.8629,1.8636,1.8598,1.8597,1.8682,1.869,1.8699,1.8759,1.873,1.8734,1.8736,1.8879,1.8881,1.8882,0,0,0,0,0,0,1.8405,1.8418,1.8533,1.8484,1.8499,1.8539,1.8568,1.8574,1.8595,1.8638,1.8646,1.8611,1.8681,1.8693,1.8743,1.8762,1.8736,1.874,1.8878,1.888,1.8881,1.8878,0,0,0,0,0,0,1.8401,1.8417,1.8435,1.8484,1.8501,1.8575,1.8569,1.8577,1.8602,1.8603,1.8652,1.866,1.8681,1.8736,1.8748,1.8768,1.8743,1.8876,1.8879,1.8881,1.8876,1.8879,1.8882,0,0,0,0,0,1.8395,1.843,1.8436,1.8449,1.8524,1.8576,1.8586,1.861,1.8604,1.8622,1.8651,1.8658,1.8758,1.8741,1.8754,1.8776,1.8875,1.8878,1.8881,1.8875,1.8879,1.8881,0,0,0,0,0,0,1.8382,1.8437,1.8444,1.8495,1.8531,1.8579,1.8603,1.8613,1.8651,1.865,1.8679,1.869,1.8739,1.8763,1.8743,1.8825,1.8817,1.8822,1.8808,1.8812,1.8814,1.8807,1.8747,0,0,0,0,0,1.8385,1.8422,1.8468,1.851,1.8527,1.8562,1.8586,1.8601,1.8639,1.8654,1.8686,1.8723,1.8763,1.8789,1.8828,1.888,1.8892,1.8902,1.8904,1.8906,1.891,1.8941,1.8946,1.8891,1.8891,1.8891,0,0,1.8392,1.8426,1.8448,1.8508,1.8537,1.8575,1.8575,1.8615,1.8644,1.8661,1.871,1.8735,1.8778,1.883,1.8855,1.8852,1.8928,1.8909,1.8911,1.8914,1.8944,1.8949,1.8954,1.8893,1.8892,1.8892,0,0,1.8424,1.8453,1.8491,1.8521,1.8566,1.8589,1.8598,1.8646,1.8663,1.8713,1.8727,1.8762,1.883,1.886,1.8885,1.893,1.8938,1.8942,1.8955,1.8985,1.8989,1.8993,1.9009,1.9015,1.8946,1.8946,1.8946,0,1.8426,1.8484,1.851,1.855,1.8576,1.8593,1.8633,1.866,1.8715,1.8733,1.8729,1.8815,1.8845,1.8905,1.8916,1.8935,1.8947,1.8936,1.8986,1.899,1.8995,1.9011,1.9017,1.8946,1.8946,1.8946,1.8946,0,1.8486,1.8526,1.8551,1.8604,1.8633,1.8672,1.8705,1.8731,1.8745,1.8769,1.8821,1.8858,1.8905,1.8921,1.8934,1.8983,1.898,1.898,1.8972,1.9,1.9015,1.9022,1.8946,1.8946,1.8946,1.8946,0,0,1.8511,1.8578,1.8587,1.8612,1.8663,1.8695,1.8735,1.8782,1.8804,1.8842,1.8877,1.8935,1.8936,1.8964,1.8981,1.9007,1.9041,1.9005,1.9007,1.9011,1.9098,1.9097,1.9104,1.9047,1.9049,1.905,1.9095,0,1.8549,1.8622,1.8646,1.8707,1.8744,1.8762,1.8798,1.8833,1.8857,1.8893,1.892,1.896,1.8959,1.8976,1.9002,1.9031,1.9059,1.9029,1.9081,1.9082,1.9069,1.9112,1.9111,1.9151,1.9101,1.9102,1.9103,0,1.8603,1.8642,1.8706,1.8753,1.877,1.8802,1.8847,1.8881,1.8922,1.8937,1.8969,1.8985,1.9029,1.9018,1.9079,1.9058,1.9081,1.9099,1.9101,1.9107,1.9094,1.9119,1.9165,1.9171,1.9113,1.9112,1.9111,0,1.8615,1.8684,1.8731,1.8752,1.8808,1.883,1.8855,1.8895,1.8921,1.8961,1.8979,1.9023,1.9047,1.9082,1.9109,1.9099,1.9169,1.916,1.9183,1.9183,1.9197,1.9196,1.9247,1.9212,1.9212,1.9211,1.9211,0,1.8656,1.8694,1.8738,1.8767,1.8811,1.884,1.8883,1.8908,1.8944,1.8979,1.8998,1.903,1.9065,1.9102,1.9124,1.9172,1.9183,1.9197,1.9203,1.9196,1.9194,1.9211,1.9209,1.9213,1.9213,1.9212,1.9212,0,1.8677,1.8707,1.876,1.8809,1.8823,1.8853,1.8896,1.8925,1.895,1.8994,1.9007,1.9046,1.9091,1.9122,1.918,1.9195,1.9247,1.9252,1.9233,1.9236,1.9257,1.9255,1.9322,1.9332,1.9289,1.929,1.929,0,1.87,1.873,1.8783,1.8808,1.8832,1.8872,1.8899,1.8929,1.8957,1.9007,1.9031,1.9077,1.9116,1.9187,1.9221,1.9266,1.9272,1.9293,1.9279,1.9272,1.9273,1.9271,1.9275,1.9295,1.9295,1.9295,1.9295,0,1.8739,1.8753,1.8791,1.8836,1.8868,1.8905,1.8942,1.8961,1.8997,1.9028,1.9074,1.9104,1.9164,1.921,1.9258,1.9284,1.9296,1.93,1.9307,1.9301,1.9289,1.9296,1.9239,1.9298,1.9298,1.9297,1.9297,1.9297,1.8762,1.879,1.8832,1.8875,1.8906,1.894,1.897,1.8999,1.9038,1.9089,1.9104,1.9153,1.9195,1.9261,1.9288,1.9326,1.9325,1.9336,1.9339,1.9341,1.9341,1.9282,1.9335,1.9335,1.9335,1.9335,1.9335,0,1.8802,1.883,1.8869,1.892,1.8954,1.8963,1.9004,1.9032,1.9075,1.9112,1.915,1.9204,1.9249,1.9288,1.9334,1.9358,1.9365,1.937,1.9368,1.9374,1.934,1.9328,1.9363,1.9363,1.9363,1.9363,1.9363,1.9363,1.8827,1.8875,1.8894,1.8958,1.8986,1.9033,1.9057,1.9089,1.9119,1.9178,1.9216,1.924,1.9279,1.9329,1.9371,1.9381,1.9398,1.9401,1.9413,1.938,1.9377,1.9373,1.9363,1.9405,1.9405,1.9444,1.9445,1.9445]},{"header":{"parameterUnit":"m.s-1","parameterCategory":1,"la1":30.2991,"la2":30.254,"lo1":-89.0895,"lo2":-89.0444,"dy":0.0017,"dx":0.0017,"nx":28,"ny":28,"refTime":"2024-08-06T03:00:00:Z","depth":0,"parameterNumber":3,"parameterNumberName":"V-component_of_WINDS"},"data":[0,0,0,0,0,0,0,0,0,0,0,0,0,0,0,0,0,0,0,0,0,0,0,0,0,0,0,0,0,0,0,0,0,0,0,0,0,0,0,0,0,0,0,0,0,0,0,0,0,0,0,0,0,0,0,0,0,0,-0.436,-0.436,0,-0.4374,-0.4374,-0.4374,-0.4396,-0.4396,-0.4396,-0.4397,-0.4411,-0.4411,-0.4411,0,0,0,0,0,0,0,0,0,0,0,0,0,-0.4351,-0.4351,-0.436,-0.436,-0.436,-0.4374,-0.4374,-0.4374,-0.4396,-0.4396,-0.4397,-0.4397,-0.4411,-0.4411,-0.4411,0,0,0,0,0,0,0,0,0,0,0,0,0,-0.4359,-0.4351,-0.436,-0.4372,-0.4374,-0.4374,-0.4374,-0.4374,-0.4396,-0.4396,-0.4397,-0.4397,-0.4411,-0.4411,-0.4411,-0.44,0,0,-0.4411,-0.4411,0,0,0,0,0,0,0,0,-0.4358,-0.4359,-0.437,-0.4371,-0.4373,-0.4384,-0.4376,-0.4383,-0.4395,-0.4387,-0.4397,-0.4397,-0.4402,-0.4402,-0.4404,-0.4401,-0.4402,-0.4411,-0.4411,-0.4411,-0.4411,0,0,0,0,0,0,0,-0.4358,-0.4359,-0.4365,-0.437,-0.4372,-0.4377,-0.4379,-0.4378,-0.4391,-0.4388,-0.439,-0.4391,-0.4402,-0.4404,-0.4404,-0.4402,-0.4411,-0.4411,-0.4411,-0.4411,-0.4391,-0.439,0,0,0,0,0,0,-0.4355,-0.4358,-0.4365,-0.4366,-0.4367,-0.4377,-0.4379,-0.438,-0.4391,-0.4393,-0.439,-0.4392,-0.4403,-0.4404,-0.4405,-0.4392,-0.4411,-0.4411,-0.4412,-0.4391,-0.439,-0.439,0,0,0,0,0,0,-0.4355,-0.4356,-0.4364,-0.4362,-0.4364,-0.4377,-0.4377,-0.438,-0.4381,-0.4393,-0.4395,-0.4389,-0.4404,-0.4405,-0.4401,-0.4393,-0.4411,-0.4412,-0.4392,-0.4391,-0.439,-0.4367,0,0,0,0,0,0,-0.4355,-0.4356,-0.4351,-0.4362,-0.4364,-0.436,-0.4377,-0.438,-0.4381,-0.4383,-0.4393,-0.4395,-0.4404,-0.4401,-0.4401,-0.4394,-0.4412,-0.4393,-0.4391,-0.439,-0.4369,-0.4366,-0.4363,0,0,0,0,0,-0.4354,-0.4344,-0.4351,-0.4352,-0.4359,-0.436,-0.4361,-0.4372,-0.438,-0.4376,-0.4384,-0.4394,-0.4394,-0.4401,-0.4401,-0.4393,-0.4393,-0.4392,-0.439,-0.437,-0.4366,-0.4363,0,0,0,0,0,0,-0.4332,-0.4346,-0.4353,-0.4347,-0.4352,-0.4363,-0.4358,-0.4368,-0.4371,-0.4372,-0.4386,-0.4388,-0.4383,-0.4388,-0.4395,-0.4383,-0.4395,-0.4394,-0.438,-0.4376,-0.4374,-0.4372,-0.4412,0,0,0,0,0,-0.4326,-0.4326,-0.4338,-0.4331,-0.4333,-0.4345,-0.4346,-0.4355,-0.436,-0.4363,-0.437,-0.4375,-0.4377,-0.4377,-0.4379,-0.437,-0.4372,-0.4365,-0.4362,-0.436,-0.4358,-0.4354,-0.4351,-0.4385,-0.4385,-0.4385,0,0,-0.4315,-0.4322,-0.4321,-0.4327,-0.4332,-0.4331,-0.4347,-0.4345,-0.4345,-0.4362,-0.4359,-0.4365,-0.4372,-0.4366,-0.4363,-0.437,-0.4349,-0.4358,-0.4356,-0.4356,-0.4352,-0.4349,-0.4346,-0.4385,-0.4385,-0.4385,0,0,-0.4292,-0.4298,-0.4293,-0.4298,-0.4305,-0.4313,-0.4312,-0.4322,-0.4327,-0.4324,-0.4337,-0.4337,-0.4339,-0.4343,-0.4345,-0.4325,-0.4335,-0.4326,-0.431,-0.4306,-0.4303,-0.4301,-0.4293,-0.429,-0.4324,-0.4324,-0.4324,0,-0.4277,-0.4276,-0.4289,-0.4286,-0.4288,-0.4305,-0.4299,-0.4303,-0.4311,-0.4312,-0.4319,-0.4322,-0.4328,-0.4322,-0.4318,-0.4319,-0.4318,-0.4324,-0.4303,-0.43,-0.4298,-0.4291,-0.4288,-0.4323,-0.4323,-0.4323,-0.4323,0,-0.4256,-0.4255,-0.425,-0.4256,-0.4258,-0.4254,-0.4267,-0.4267,-0.4275,-0.4283,-0.428,-0.4288,-0.4291,-0.4291,-0.4299,-0.4287,-0.4291,-0.43,-0.4312,-0.4294,-0.4287,-0.4284,-0.4321,-0.4322,-0.4322,-0.4322,0,0,-0.4218,-0.4233,-0.4231,-0.4234,-0.4244,-0.4244,-0.4241,-0.4244,-0.4244,-0.4249,-0.4246,-0.4248,-0.4257,-0.426,-0.4269,-0.4265,-0.4248,-0.4275,-0.4275,-0.4269,-0.4234,-0.4226,-0.4223,-0.4255,-0.4255,-0.4254,-0.4233,0,-0.4197,-0.4192,-0.4205,-0.4197,-0.4196,-0.4212,-0.421,-0.4215,-0.4222,-0.4223,-0.4231,-0.4232,-0.4244,-0.4245,-0.4243,-0.4251,-0.4241,-0.4253,-0.4252,-0.4252,-0.4248,-0.4219,-0.4211,-0.419,-0.4231,-0.4231,-0.423,0,-0.4172,-0.4175,-0.4167,-0.4178,-0.4178,-0.4175,-0.4179,-0.418,-0.4187,-0.4193,-0.4196,-0.4207,-0.4204,-0.4217,-0.4214,-0.4222,-0.4222,-0.4227,-0.4226,-0.4225,-0.4239,-0.4217,-0.4184,-0.4181,-0.4226,-0.4227,-0.4227,0,-0.4144,-0.4147,-0.4143,-0.4145,-0.4158,-0.4155,-0.416,-0.4168,-0.4169,-0.4173,-0.4174,-0.4178,-0.418,-0.4182,-0.4194,-0.4202,-0.4189,-0.4203,-0.4193,-0.4193,-0.4189,-0.4188,-0.4155,-0.4191,-0.4191,-0.4191,-0.4191,0,-0.4118,-0.4112,-0.413,-0.4128,-0.4122,-0.4136,-0.413,-0.4137,-0.4143,-0.4142,-0.4157,-0.4155,-0.4171,-0.4172,-0.4181,-0.4176,-0.4177,-0.4182,-0.4184,-0.4179,-0.4179,-0.4179,-0.418,-0.4191,-0.4191,-0.4191,-0.4191,0,-0.4086,-0.4098,-0.4094,-0.4106,-0.4109,-0.4104,-0.4114,-0.4112,-0.4121,-0.4119,-0.412,-0.4133,-0.4134,-0.4146,-0.415,-0.4156,-0.4148,-0.4154,-0.4145,-0.4147,-0.4136,-0.4136,-0.41,-0.4096,-0.4136,-0.4136,-0.4135,0,-0.4068,-0.4064,-0.4076,-0.4076,-0.408,-0.408,-0.4082,-0.4097,-0.4098,-0.4106,-0.4102,-0.4105,-0.4107,-0.4108,-0.4118,-0.4121,-0.4126,-0.4114,-0.4127,-0.4123,-0.4125,-0.4124,-0.4124,-0.411,-0.411,-0.4109,-0.4109,0,-0.4035,-0.4041,-0.4042,-0.4046,-0.4048,-0.4052,-0.4056,-0.4056,-0.4072,-0.4072,-0.4073,-0.4075,-0.408,-0.4081,-0.4086,-0.4092,-0.4103,-0.4105,-0.4103,-0.4097,-0.4092,-0.4094,-0.4136,-0.4105,-0.4106,-0.4106,-0.4106,-0.4106,-0.4008,-0.4005,-0.4013,-0.4014,-0.402,-0.4024,-0.4022,-0.4031,-0.4032,-0.4036,-0.4045,-0.4045,-0.4053,-0.4061,-0.4065,-0.4065,-0.4072,-0.4069,-0.4068,-0.4066,-0.4063,-0.4094,-0.4066,-0.4066,-0.4067,-0.4067,-0.4067,0,-0.3975,-0.3981,-0.3982,-0.3988,-0.3989,-0.4,-0.4006,-0.4006,-0.4006,-0.4012,-0.4015,-0.4016,-0.4018,-0.4029,-0.4032,-0.403,-0.4035,-0.4031,-0.403,-0.4031,-0.4058,-0.4059,-0.4026,-0.4026,-0.4026,-0.4026,-0.4026,-0.4026,-0.3957,-0.3952,-0.396,-0.3958,-0.3964,-0.3964,-0.3966,-0.397,-0.3975,-0.3976,-0.3978,-0.3985,-0.3993,-0.3997,-0.4,-0.4003,-0.4003,-0.3996,-0.4001,-0.4025,-0.4029,-0.4033,-0.4034,-0.3996,-0.3996,-0.3974,-0.3974,-0.3973]}]]